Theta_e
285 284 284 284 283 283 282 282 281 281 280 280 280 279 279 278 278 277 277 277 276 276 276 276 275 275 275 275 274 274 274 274 274 274 274 273 273 273 273 273 272 273 273 273 273 274 273 273 273 273 273 273 274 274 274 274 274 274 274 274 274 273 273 272 270 270 273 275 274 274 275 275 274 275 274 274 274 275 277 276 276 276 276 276 277
284 284 283 283 282 282 281 280 280 280 279 279 278 278 277 277 277 276 276 276 276 276 275 276 275 275 275 274 274 274 273 273 273 273 273 272 272 274 273 272 272 272 273 272 272 274 273 272 273 273 273 273 273 273 273 273 273 272 273 273 272 272 273 272 271 270 269 272 273 274 273 275 272 274 273 273 273 275 274 275 276 276 276 276 275
284 283 282 282 281 280 280 279 279 278 278 277 277 277 277 276 276 276 275 275 275 275 275 275 275 274 274 274 273 273 273 273 272 272 272 271 271 271 272 271 272 272 272 272 272 272 272 272 272 272 274 272 272 272 272 272 272 272 271 272 271 271 272 272 271 270 270 270 272 271 272 273 272 272 273 274 274 274 274 274 274 275 276 275 275
283 282 282 281 280 279 279 279 278 278 277 277 276 276 276 276 276 275 275 276 275 275 274 274 274 274 273 273 272 272 272 272 271 271 272 270 271 271 271 271 271 272 272 272 272 272 272 271 271 272 272 271 272 271 272 272 271 271 271 271 271 271 271 272 272 270 270 269 270 271 272 271 272 272 273 273 273 273 273 274 274 274 274 275 275
282 282 281 280 279 279 278 278 277 276 276 276 276 275 275 275 276 275 276 275 274 274 274 273 273 273 273 272 272 271 271 271 271 271 270 270 270 271 271 272 272 272 272 272 274 271 271 271 271 271 271 271 271 271 271 271 271 271 271 271 271 271 271 271 271 271 270 269 269 271 272 272 272 272 272 271 272 272 273 273 273 273 274 274 275
282 281 280 279 279 278 277 277 276 276 275 275 275 275 275 275 275 276 275 275 273 273 273 273 272 272 272 271 271 271 270 270 270 270 270 270 271 272 272 272 272 272 272 272 272 272 271 271 272 271 271 271 271 271 271 271 271 271 271 271 271 271 271 271 271 271 271 270 270 270 271 270 270 271 272 272 271 271 271 272 273 273 273 273 274
281 280 280 279 278 278 277 277 277 276 275 275 275 275 275 274 274 274 274 273 273 272 272 272 271 271 271 271 271 270 270 270 270 269 269 271 271 272 271 271 272 271 272 272 272 272 272 271 271 271 271 271 271 271 271 271 271 271 272 272 272 272 272 271 271 271 271 270 270 270 269 271 270 269 272 273 272 272 271 271 271 273 273 273 273
281 280 280 279 279 278 278 277 276 276 275 275 275 275 275 274 274 273 273 272 271 272 272 272 271 271 270 270 270 269 269 269 269 269 270 270 270 271 271 271 271 271 271 271 272 271 272 271 271 271 271 271 271 271 271 271 272 272 272 272 272 272 272 272 271 271 270 270 269 269 270 269 270 271 272 272 271 271 272 271 270 271 272 273 273
280 280 279 279 279 278 277 276 276 276 275 275 275 275 274 274 273 273 273 272 273 273 272 272 270 270 269 269 269 269 269 269 269 269 268 270 271 271 272 272 272 271 271 270 270 270 270 270 271 271 273 275 276 276 276 276 273 269 271 272 272 272 272 272 271 271 270 270 269 270 269 269 270 270 270 270 270 270 272 272 271 272 272 272 273
281 280 280 280 279 278 277 276 276 275 275 275 275 274 274 273 273 273 273 273 272 271 269 269 269 269 269 268 268 269 269 269 272 275 275 270 272 273 273 273 272 272 272 271 270 270 269 270 271 274 275 275 275 275 275 276 276 275 273 273 272 272 271 270 270 270 270 269 269 269 268 269 270 270 270 271 272 273 272 272 271 272 272 272 273
281 281 280 280 278 277 276 276 276 275 275 275 275 274 274 273 273 273 271 270 269 269 269 269 268 269 268 268 268 268 269 269 274 276 277 277 275 273 272 272 273 272 272 271 271 270 269 269 269 271 273 273 272 274 275 275 275 276 276 276 276 273 271 271 270 270 269 269 270 270 269 269 271 272 272 272 272 272 272 272 272 272 271 270 269
282 281 281 280 278 277 276 276 275 275 275 274 274 274 273 273 272 271 270 270 270 268 268 268 268 268 268 267 267 267 268 273 275 276 277 277 277 274 274 273 272 272 272 271 271 271 270 269 269 270 269 271 271 271 271 273 274 274 275 275 275 276 276 273 272 271 271 270 270 270 270 270 271 272 271 271 271 272 272 273 272 272 271 271 271
282 281 280 279 278 277 276 275 275 275 275 275 274 273 272 272 271 270 270 270 267 267 269 269 269 267 267 267 266 266 267 272 275 277 277 277 277 276 274 273 272 272 272 272 272 271 271 269 268 269 269 272 271 269 268 269 272 274 275 275 275 276 277 278 278 275 274 272 271 271 271 271 271 271 273 273 274 272 273 272 273 273 273 272 272
282 281 280 279 278 277 277 276 276 275 275 274 273 272 272 271 271 271 270 269 268 268 268 268 267 265 266 266 265 265 266 271 274 276 277 277 277 276 274 273 272 272 272 272 271 270 268 268 267 268 268 268 269 269 269 269 270 270 271 272 272 273 276 277 278 278 277 274 273 272 273 274 272 273 274 275 273 272 272 272 273 273 273 272 274
281 281 279 279 278 277 277 276 275 275 274 273 273 272 272 271 271 270 269 269 268 268 268 266 265 264 264 264 263 264 265 271 273 275 276 277 277 276 274 273 272 271 271 271 270 269 268 268 268 268 268 268 269 270 271 272 272 272 272 272 273 273 273 273 273 274 274 274 274 274 274 274 274 274 275 276 275 275 274 273 273 272 272 273 273
281 280 279 278 277 277 276 276 275 274 274 273 272 273 272 271 270 270 269 268 268 266 264 264 265 264 264 263 262 262 264 271 273 275 276 276 277 274 272 271 270 270 269 270 270 270 270 269 268 268 269 269 272 274 275 274 274 273 273 273 274 275 275 277 278 279 277 276 275 275 276 276 278 277 276 275 275 274 273 273 272 271 270 269 268
280 280 279 277 276 276 276 276 275 274 273 272 272 271 271 270 270 269 268 269 268 266 265 264 264 264 263 263 262 262 262 267 272 274 275 276 275 272 271 269 269 268 269 270 270 270 270 271 270 270 271 271 273 275 276 277 274 274 273 273 274 274 274 275 276 277 277 278 278 278 278 278 278 278 277 277 274 274 271 269 268 269 268 267 268
280 280 278 277 276 276 276 276 275 274 273 272 272 272 271 271 270 269 269 268 268 266 264 263 262 263 263 262 263 261 261 265 271 273 274 275 274 271 270 269 268 268 268 269 270 270 271 272 272 271 271 271 275 276 277 277 274 274 274 273 272 271 271 272 272 273 276 275 275 274 274 274 274 274 274 274 275 274 269 266 268 268 267 268 266
280 279 278 277 276 276 276 276 275 274 273 273 273 272 271 270 269 268 268 268 268 265 263 263 262 261 261 261 265 264 262 264 269 272 273 274 274 272 270 268 267 267 268 268 270 270 270 271 272 273 273 274 276 277 278 277 274 274 273 272 269 269 269 270 271 269 268 267 266 267 267 269 268 268 268 272 273 272 270 269 270 268 267 267 267
280 279 278 277 277 276 276 276 276 275 274 273 272 272 270 268 267 267 266 266 265 264 263 263 262 261 261 260 261 262 262 261 262 270 272 273 275 271 269 268 267 267 268 268 267 269 270 270 272 274 275 276 277 277 277 278 275 274 272 269 267 266 270 269 267 267 264 264 264 264 265 265 266 266 266 267 268 269 270 269 269 268 266 266 266
280 279 278 276 276 276 276 276 276 275 274 272 271 269 268 268 267 266 265 264 264 263 262 261 261 260 259 260 260 259 260 261 262 269 271 273 275 274 271 270 269 268 268 268 268 268 269 270 270 274 276 276 276 277 277 277 276 273 269 268 268 272 271 264 265 266 263 263 263 263 263 263 264 265 265 266 267 267 267 268 268 268 266 265 265
278 277 277 276 276 275 275 274 274 272 270 268 267 266 265 266 266 265 264 263 262 261 260 260 260 259 258 258 258 259 261 265 262 267 271 273 274 275 272 270 270 269 268 268 269 269 270 271 271 273 275 275 276 276 276 276 276 271 269 274 275 274 267 265 262 261 260 261 261 261 261 261 262 263 264 265 266 266 266 267 267 267 267 267 266
277 277 276 275 274 274 273 271 270 269 268 268 267 266 264 263 262 262 262 262 262 261 260 260 259 259 258 258 259 260 260 261 268 266 269 272 274 274 275 273 274 272 270 269 270 270 271 272 272 274 275 276 276 275 275 275 272 271 274 274 273 272 267 261 261 259 259 260 260 260 261 261 261 262 263 264 265 266 266 266 267 267 267 268 268
276 276 275 274 273 272 271 270 269 268 267 267 266 265 263 262 261 261 261 262 261 260 259 259 258 258 258 259 259 260 261 261 265 269 269 272 274 275 275 275 276 273 273 272 271 272 271 270 272 275 276 275 275 274 274 272 271 272 273 272 271 268 262 260 258 258 259 259 259 259 260 261 261 261 262 264 264 265 266 266 266 266 267 267 267
275 275 274 272 271 269 268 268 267 266 266 266 265 264 262 261 261 259 260 261 260 260 260 259 259 259 259 259 260 261 261 262 262 266 271 272 274 274 275 275 275 275 273 272 272 270 273 275 276 276 275 274 274 273 270 269 271 271 271 270 267 259 259 257 258 258 258 259 259 260 260 261 262 263 264 264 265 265 265 265 265 266 266 266 266
274 274 272 270 269 267 266 264 264 264 264 265 266 265 263 262 262 260 260 260 260 260 260 259 259 259 259 260 260 261 262 262 262 263 267 270 271 273 274 274 274 274 274 273 273 275 275 275 274 273 272 271 269 264 264 264 269 269 268 266 258 258 257 257 257 257 258 259 259 259 260 261 262 263 264 264 263 262 263 263 264 264 264 264 264
273 271 270 268 266 266 266 264 263 262 262 262 262 262 262 262 262 261 261 261 260 260 260 260 260 260 260 260 260 260 261 261 262 263 263 262 263 266 268 269 272 273 271 270 271 268 271 270 269 272 270 270 269 268 267 266 263 261 260 259 258 257 258 257 257 258 259 259 259 260 261 262 262 262 261 261 261 262 263 264 264 263 264 264 263
272 270 268 267 265 265 265 263 263 262 262 262 262 261 261 262 262 262 261 261 261 261 260 261 261 261 261 260 259 259 260 260 262 262 262 261 262 263 265 266 267 266 266 266 268 269 269 270 267 261 259 258 258 257 257 257 258 259 257 256 257 258 262 263 263 258 258 259 259 260 260 260 259 260 261 261 260 261 263 263 263 263 263 263 262
269 267 265 264 264 264 264 263 263 263 262 261 262 263 262 262 263 263 262 262 263 263 262 262 262 262 262 261 260 260 260 261 263 267 265 267 265 264 265 267 268 268 270 273 270 268 266 263 260 258 256 257 257 256 255 256 256 256 255 256 255 256 256 255 256 257 258 258 258 259 259 259 259 261 261 261 262 262 263 263 263 262 263 263 262
267 266 265 264 263 263 263 262 262 262 261 261 261 260 263 266 264 263 262 266 269 270 269 264 263 262 261 262 262 262 262 263 269 271 272 272 272 272 271 272 272 271 272 275 271 266 263 260 257 256 256 255 255 256 256 255 255 256 255 260 258 256 256 256 256 257 258 258 258 258 258 259 260 261 262 262 262 262 263 264 262 262 261 261 261
267 265 264 264 264 264 263 262 261 261 260 260 260 260 258 263 270 270 268 268 270 272 273 272 271 269 264 261 264 270 270 271 272 272 273 274 274 274 274 275 275 275 275 271 266 264 261 259 257 256 256 254 255 256 255 255 255 254 255 255 255 256 257 255 256 257 258 258 258 258 259 259 261 262 262 261 261 262 261 261 261 261 261 261 261
268 267 265 265 264 263 263 262 261 260 260 260 260 260 260 260 261 269 272 271 272 273 274 274 273 273 272 268 264 264 271 272 273 273 274 274 274 274 275 274 274 275 275 274 265 262 259 258 255 255 254 254 255 256 255 253 254 253 253 254 255 255 256 256 258 256 257 257 257 258 259 260 261 262 261 261 262 261 260 260 260 261 261 261 261
269 267 265 264 264 263 262 262 261 261 260 260 259 260 260 261 261 261 267 273 273 273 273 274 274 274 273 273 272 269 270 272 274 274 274 274 274 274 274 274 274 274 274 267 262 261 257 255 254 254 253 255 255 253 254 253 253 254 252 253 254 255 255 257 258 257 257 258 259 258 259 260 262 262 260 260 260 259 260 260 260 260 260 260 261
270 268 266 265 264 263 263 262 262 262 262 261 261 260 261 262 262 263 262 264 268 271 273 274 274 274 274 274 273 273 273 273 273 273 274 273 273 273 273 272 273 274 271 264 261 259 255 253 253 254 254 254 254 253 254 254 253 253 253 253 256 256 256 255 256 256 256 257 257 258 260 261 262 261 261 260 259 258 259 259 259 260 260 261 261
267 266 264 264 265 264 264 264 263 262 262 261 261 261 261 261 262 262 263 264 265 266 267 269 273 274 273 273 275 275 275 275 274 274 273 273 273 273 273 270 268 267 263 260 259 257 255 255 254 255 253 254 254 253 254 252 252 252 253 253 252 253 255 254 255 256 256 257 257 258 259 260 261 262 262 260 260 259 259 259 259 260 260 260 261
267 266 265 264 264 264 264 263 263 262 262 262 261 261 260 261 261 262 262 263 264 264 265 267 268 272 274 274 273 274 274 274 274 273 273 273 273 273 268 265 265 264 263 259 257 257 255 255 253 254 253 253 253 253 253 253 253 253 251 251 254 253 253 253 255 256 257 258 258 259 259 258 260 261 261 259 258 258 258 259 259 260 260 260 261
266 266 265 265 264 264 263 262 262 262 264 261 261 260 260 260 260 260 261 261 262 262 263 262 261 262 265 262 266 271 273 272 272 272 272 272 272 270 267 265 264 262 260 258 255 254 254 255 254 253 253 253 253 253 252 252 252 252 255 255 253 253 252 252 255 257 257 256 256 256 256 257 258 260 260 259 259 258 258 259 260 260 261 261 261
266 266 266 264 263 263 262 261 261 263 262 260 260 260 260 260 260 260 260 260 260 260 260 259 262 261 262 262 264 262 262 267 269 270 271 271 269 267 265 264 263 262 261 258 255 253 255 254 251 253 253 252 252 252 251 252 251 251 252 250 252 253 257 258 258 256 255 254 255 255 256 257 258 259 261 259 258 258 259 259 259 259 260 260 260
263 265 266 265 265 263 262 261 261 261 261 260 260 260 259 259 259 259 259 259 259 259 258 258 259 259 260 257 255 259 261 259 259 260 260 260 260 260 262 261 261 260 259 258 254 253 251 253 252 251 252 251 253 252 251 253 251 252 251 251 252 251 253 252 252 253 253 253 254 254 255 256 257 259 260 259 259 259 259 259 258 259 259 259 259
262 262 264 266 264 264 261 261 260 260 260 259 259 259 259 259 259 259 259 258 258 258 258 257 257 258 258 255 254 255 257 258 258 257 255 255 255 255 257 257 258 258 257 255 252 251 251 252 252 251 252 252 252 253 251 252 252 253 251 252 252 252 253 252 252 252 253 253 253 254 255 255 257 259 260 260 260 260 259 258 258 259 259 259 259
262 262 261 265 264 262 260 260 260 260 259 259 259 258 258 258 258 258 258 258 258 257 257 257 258 258 258 258 263 262 257 257 257 255 254 254 253 252 252 253 253 252 252 252 252 251 251 251 251 252 251 252 252 252 251 251 252 252 252 253 252 253 253 252 252 252 253 253 253 253 254 255 257 259 259 260 262 261 260 259 258 258 259 259 258
260 260 261 261 262 260 259 259 258 259 258 258 258 258 258 258 258 258 258 258 257 257 257 257 258 256 259 262 264 266 260 256 255 254 253 252 252 252 252 252 252 251 253 253 253 252 251 251 252 252 252 252 252 251 251 251 252 252 252 252 252 252 252 252 252 252 252 252 252 252 254 256 258 259 260 261 260 260 259 258 258 258 258 258 258
259 259 260 259 260 259 259 258 257 257 257 257 257 258 258 258 258 258 258 258 258 257 257 257 257 256 257 263 263 265 262 259 258 257 257 256 254 254 253 254 253 253 252 252 253 252 253 252 252 252 252 253 252 252 253 253 251 252 252 251 252 252 252 252 252 252 250 251 251 253 254 254 256 256 257 258 259 258 258 257 258 258 258 257 257
258 258 258 258 258 257 257 257 258 258 258 258 258 258 258 258 258 258 258 257 257 257 257 257 256 256 255 258 260 260 260 260 260 259 259 257 256 255 255 252 253 251 251 252 252 251 252 252 252 253 252 252 252 249 252 252 251 252 252 252 252 252 252 252 252 251 250 249 250 252 252 253 255 255 257 257 257 256 256 257 258 258 258 258 257
256 257 257 257 256 257 257 258 259 259 258 258 258 258 257 257 257 257 257 257 257 257 257 256 255 255 255 255 255 255 256 256 255 254 255 255 255 255 254 253 252 252 252 252 251 251 250 252 252 251 252 252 251 251 251 251 250 251 252 252 251 252 253 252 252 250 249 249 251 251 252 253 253 254 255 255 255 255 256 257 258 259 259 258 257
256 256 257 257 257 257 257 258 258 258 258 258 257 256 256 257 257 257 257 256 256 256 255 255 255 255 255 255 254 254 254 252 252 252 252 252 253 254 253 252 252 251 251 252 251 251 251 251 251 251 252 252 251 251 251 250 250 251 251 251 252 252 253 253 251 250 250 250 250 250 251 253 253 254 255 255 255 255 256 257 257 258 258 257 257
255 256 257 257 257 257 257 257 257 257 257 257 257 257 257 256 256 256 256 256 256 255 255 255 255 255 254 254 254 253 253 252 252 252 252 252 252 252 251 249 250 250 251 251 249 251 251 251 251 251 251 251 251 251 250 250 249 250 250 251 251 251 252 252 252 252 251 251 251 250 251 252 252 253 254 254 254 254 255 257 258 258 258 257 257
254 255 255 256 256 257 257 257 257 256 257 257 256 256 256 256 255 255 255 255 255 255 255 254 254 254 253 253 253 253 252 252 252 252 252 252 252 251 251 249 250 250 249 250 250 251 250 250 250 250 250 251 251 251 251 250 250 250 250 250 251 251 252 253 252 252 251 251 250 250 250 251 251 252 252 253 253 254 255 256 258 258 258 258 258
254 255 256 257 258 257 257 257 256 256 256 256 256 256 255 255 255 255 255 255 254 254 254 254 253 253 253 253 253 252 252 251 252 252 252 252 252 251 251 250 249 250 249 250 251 251 250 250 250 250 250 250 250 250 251 250 250 250 250 250 251 253 253 253 253 252 253 252 251 251 250 250 251 251 252 253 253 254 256 257 257 257 257 257 257
256 256 257 258 257 257 257 257 256 256 256 256 256 255 255 255 254 254 254 253 253 253 253 253 253 253 252 252 252 252 252 252 252 252 251 251 251 251 251 250 249 249 249 250 251 251 250 249 249 249 249 249 250 250 250 250 251 251 250 251 253 253 253 254 254 254 254 252 252 251 251 251 251 251 252 252 254 255 256 257 257 257 257 256 256
257 257 257 257 257 257 257 256 256 256 256 255 255 255 254 254 254 254 253 253 253 253 253 253 252 252 252 252 251 251 251 251 251 251 251 251 251 251 250 249 249 249 249 250 250 251 250 250 250 250 249 250 250 250 250 251 251 251 252 253 254 254 254 254 253 254 255 254 252 252 251 252 252 252 253 254 255 256 257 257 257 257 257 257 258
Wind_Speed
10 9 9 9 11 10 9 8 8 8 8 7 8 7 6 6 6 6 6 6 6 6 6 5 5 5 5 5 5 5 5 5 4 4 5 5 4 4 3 3 3 2 2 3 2 2 3 3 3 4 3 4 4 4 5 5 4 5 4 4 3 3 3 4 8 13 15 7 4 7 6 9 9 6 10 10 10 9 10 9 10 9 9 9 10
10 10 9 10 10 10 9 7 8 8 9 8 8 7 6 7 6 6 6 5 5 6 6 5 5 5 5 5 5 5 5 5 4 4 5 4 3 2 2 2 2 2 1 2 3 2 3 3 3 3 3 3 3 4 4 4 5 4 3 4 4 4 3 5 7 9 15 16 9 6 8 8 11 6 8 13 12 9 10 9 8 9 9 9 9
9 10 10 10 10 9 9 9 9 9 9 7 8 7 7 6 6 7 7 6 5 5 6 5 5 5 5 5 5 4 4 4 3 4 3 3 2 1 1 2 1 1 2 2 2 2 3 3 3 3 3 3 3 3 3 4 3 4 3 3 4 4 4 4 6 10 12 14 11 9 9 9 9 11 10 8 10 9 10 10 9 9 8 9 9
10 10 10 10 10 10 9 9 10 9 9 7 8 7 7 6 6 7 7 6 7 5 5 5 5 5 6 5 5 4 4 3 3 3 2 2 2 1 1 1 1 1 1 2 2 3 3 3 3 3 3 3 4 4 3 3 4 3 3 3 4 5 5 4 5 7 10 13 13 8 9 10 11 8 8 9 9 9 8 10 9 9 10 9 9
11 10 11 12 10 10 10 10 10 9 9 8 8 8 7 7 6 7 7 7 6 6 4 4 5 5 6 4 4 3 3 3 2 2 2 2 1 1 1 1 2 1 1 2 3 2 3 3 3 3 3 4 4 4 4 4 3 3 4 4 5 5 5 5 6 6 8 11 13 9 8 9 9 10 8 9 10 9 8 9 10 9 10 9 8
10 11 11 12 11 11 10 10 10 10 10 9 9 8 7 6 6 6 6 7 6 4 6 4 5 5 4 4 3 3 3 2 2 1 1 1 2 2 2 2 2 2 1 2 2 2 3 3 3 3 3 4 5 4 4 4 3 4 5 5 5 5 5 5 6 7 8 10 10 13 10 11 13 9 7 8 10 12 11 9 8 8 8 10 9
11 11 11 11 11 11 11 11 11 10 10 9 8 7 7 7 7 7 6 6 7 6 5 6 4 5 4 4 3 3 2 2 1 1 2 2 1 1 1 2 2 1 1 2 2 3 3 3 3 3 3 3 4 4 5 4 4 5 5 5 6 6 8 8 8 9 9 11 11 11 13 12 11 14 10 9 11 10 12 12 10 7 8 9 11
11 11 11 11 11 12 11 10 10 10 9 8 8 8 7 7 7 6 6 7 6 6 7 6 4 4 4 4 3 3 2 1 1 3 2 2 1 1 1 0 1 1 2 2 2 2 3 3 3 3 3 4 4 4 4 5 4 4 4 4 5 8 8 8 9 10 11 11 12 13 13 13 12 12 12 12 12 10 7 9 13 13 11 9 9
12 12 11 12 12 11 10 9 8 9 10 9 9 9 9 8 7 7 6 6 6 6 6 6 5 5 4 4 2 2 2 2 2 3 3 1 2 1 0 1 1 2 2 2 2 2 3 3 3 3 4 8 11 10 9 9 6 5 4 4 7 8 9 8 7 7 7 7 9 11 12 11 11 13 15 12 12 14 14 12 13 12 12 11 10
13 13 13 12 11 10 10 10 10 10 10 10 10 9 8 8 7 7 7 6 6 6 5 5 5 4 4 3 3 2 2 1 3 7 6 4 2 2 1 2 2 3 3 2 2 3 3 3 3 8 10 10 10 12 12 12 12 9 7 6 6 6 6 6 6 6 7 8 8 11 11 11 11 10 14 15 14 14 15 13 14 14 13 12 11
13 14 14 11 11 11 11 10 10 11 10 9 8 8 9 7 6 6 5 5 7 6 6 6 5 4 4 3 3 2 2 2 7 8 6 6 4 2 3 3 3 3 3 3 3 3 3 2 3 4 6 7 7 11 12 12 13 14 14 14 11 8 6 7 8 7 8 9 9 8 9 12 13 14 14 14 12 11 11 12 13 13 12 13 13
14 13 12 12 12 12 11 11 11 11 10 9 9 8 7 7 7 7 6 6 5 5 6 6 5 4 4 3 3 3 1 4 8 8 7 6 5 3 3 2 2 3 3 4 3 3 3 2 3 2 3 5 5 5 8 12 13 14 14 13 13 14 14 10 9 9 8 9 10 9 7 9 11 11 12 12 13 13 11 12 13 14 13 12 11
14 13 12 12 13 12 12 13 12 11 10 10 9 8 8 8 7 7 8 6 5 5 7 7 6 4 4 4 3 2 2 5 7 8 8 6 6 4 3 3 2 3 4 4 5 5 3 3 3 3 3 9 7 5 5 6 10 14 14 14 15 16 16 18 17 13 11 12 12 13 11 11 12 11 11 13 13 15 16 13 12 12 13 13 12
13 13 12 13 13 13 12 12 11 11 9 9 9 9 10 10 8 6 6 6 6 5 5 6 5 5 5 4 3 2 2 5 8 8 7 7 7 5 3 3 3 4 4 5 4 3 3 4 4 5 4 4 5 7 7 7 7 8 9 9 9 13 16 20 22 24 20 14 14 14 14 10 12 12 15 16 16 14 12 12 11 13 12 13 14
12 12 13 12 12 11 12 11 11 9 9 9 9 10 10 8 8 7 8 8 9 8 8 7 5 5 4 4 4 3 3 7 9 9 8 8 7 5 3 3 2 3 4 4 4 3 3 4 4 5 4 4 6 8 7 8 7 8 9 10 10 8 10 10 10 10 10 10 12 14 15 13 13 15 13 10 12 11 11 13 15 15 15 14 11
12 11 11 12 13 13 12 12 10 10 10 10 10 11 10 10 10 8 7 5 3 4 4 4 6 5 5 4 4 4 3 8 9 10 8 7 6 3 2 2 3 3 4 4 5 4 3 4 3 4 5 6 9 14 12 10 9 10 11 10 9 9 8 9 14 16 14 13 12 13 14 15 20 19 19 18 15 14 14 12 10 10 10 9 9
13 14 13 12 13 13 12 12 12 11 11 11 11 11 12 9 8 7 8 7 7 7 7 6 5 6 5 5 5 4 3 6 9 9 7 7 5 2 3 2 4 4 5 5 4 5 5 5 6 6 7 7 11 14 15 15 9 9 10 11 9 7 7 8 14 20 22 22 20 21 23 25 26 26 25 26 19 16 12 11 10 10 10 12 10
14 13 13 12 13 12 12 12 12 12 12 14 14 11 9 6 9 9 11 10 9 8 6 6 5 6 6 6 6 4 4 5 8 8 7 7 6 4 4 4 4 5 3 5 4 4 5 9 9 8 8 7 12 14 16 13 8 8 9 8 10 10 9 9 9 9 13 15 18 20 21 21 21 21 21 21 21 16 9 10 11 9 10 9 11
13 13 12 11 11 12 11 12 12 13 14 14 12 13 13 12 8 8 7 7 7 6 6 6 5 5 5 5 6 5 4 5 7 7 8 9 7 3 3 3 4 4 4 4 4 3 4 7 11 10 9 10 15 14 14 12 8 8 8 7 8 10 10 10 8 9 9 10 9 10 10 13 13 11 13 20 19 16 10 10 8 8 9 10 10
12 11 11 12 12 12 12 13 13 13 14 11 9 10 7 7 8 9 6 6 7 6 6 6 7 6 5 4 5 4 4 5 4 8 9 10 11 5 5 5 6 5 5 4 4 4 6 6 9 12 12 13 12 13 14 16 10 7 5 5 8 11 7 5 8 8 9 8 9 8 10 9 10 10 10 11 11 11 12 11 11 11 10 10 10
11 11 10 10 11 12 11 12 14 12 10 10 8 7 7 8 8 8 8 6 6 6 6 6 5 5 4 4 4 4 4 4 5 9 11 12 13 11 5 7 5 5 3 5 6 6 5 6 5 11 13 12 12 14 15 15 15 6 5 5 6 11 8 6 9 12 6 7 7 7 7 7 7 7 9 9 9 9 10 11 10 10 10 10 10
9 8 10 11 11 11 11 9 9 9 8 8 8 8 5 6 6 7 6 7 8 7 6 5 6 5 4 4 4 4 4 7 5 9 12 14 14 15 6 7 7 6 6 6 6 5 6 6 5 8 11 11 12 13 15 15 15 6 7 13 16 14 8 5 4 5 5 5 6 6 6 6 7 7 7 8 9 9 9 9 10 10 10 9 10
9 9 10 10 11 11 10 11 10 8 9 9 10 9 7 7 6 6 7 7 8 7 7 6 5 5 4 4 4 4 4 5 11 8 13 14 14 14 14 10 12 8 7 6 5 4 5 6 7 11 12 11 11 13 14 15 10 7 14 14 13 14 10 5 6 5 5 5 5 5 6 6 7 7 7 7 7 8 8 8 9 9 9 9 10
9 9 9 10 10 9 9 9 9 8 9 9 9 9 8 7 7 7 7 8 8 7 6 6 5 6 7 5 4 4 4 4 8 14 12 15 14 14 13 14 13 7 5 6 7 7 4 4 6 14 13 10 11 13 13 11 8 12 12 12 12 11 5 6 4 5 5 5 5 5 6 6 6 6 7 7 8 10 10 9 9 9 9 9 10
9 9 10 9 9 8 7 8 8 8 8 10 10 9 8 8 8 5 7 7 7 8 7 7 8 7 6 6 5 4 5 5 5 10 15 15 15 14 14 13 13 13 7 3 3 2 9 14 14 11 8 9 13 12 9 8 11 11 11 11 9 3 5 5 5 5 5 5 5 6 5 6 6 7 8 9 9 10 8 8 8 8 8 9 9
9 10 8 8 8 8 9 6 6 7 8 8 9 9 12 11 10 9 8 8 8 8 8 8 7 7 7 6 6 6 5 5 6 6 8 9 9 12 12 12 11 11 10 7 11 13 12 11 6 4 5 6 5 1 1 3 9 10 9 8 2 4 3 5 4 4 5 5 6 7 7 7 7 8 8 8 7 8 8 8 8 8 7 8 10
9 7 9 8 7 8 10 9 7 6 7 6 6 7 8 8 8 9 9 10 9 8 8 8 8 7 7 7 6 5 5 6 6 6 6 6 6 5 6 6 8 9 6 5 6 6 6 1 1 3 3 7 7 6 5 5 4 3 2 2 3 3 3 3 4 4 4 5 6 6 7 7 7 7 7 6 6 7 6 8 8 9 9 9 9
10 9 10 8 8 9 9 10 11 8 9 9 9 8 7 9 11 13 14 13 12 10 9 9 9 9 9 7 6 6 6 6 7 8 8 7 6 5 5 5 5 4 6 6 6 4 3 2 3 3 2 2 2 2 2 1 2 3 2 2 3 4 5 7 6 3 4 4 5 6 6 6 7 7 7 5 5 6 6 7 8 9 8 9 8
6 6 7 7 8 7 8 9 9 9 9 8 8 9 12 13 12 9 6 6 10 13 12 10 10 9 8 9 9 8 6 8 10 9 9 9 9 6 6 6 6 6 10 13 5 4 4 1 0 1 1 1 3 4 4 4 3 2 2 4 2 3 4 2 4 5 5 5 6 7 8 7 8 7 6 5 6 7 7 7 7 8 9 7 7
6 7 7 8 7 7 7 8 8 8 9 10 9 7 6 9 8 8 8 10 15 11 9 9 9 8 8 8 8 10 11 10 11 15 16 15 16 16 15 14 14 12 14 17 5 6 4 3 3 2 1 2 4 4 5 3 4 4 2 4 4 4 3 3 3 5 5 5 6 6 7 7 7 7 6 7 8 6 7 9 9 8 8 9 9
7 7 7 8 10 10 8 7 7 7 7 7 7 8 5 7 14 16 11 11 14 15 14 11 12 14 11 8 8 11 9 10 13 13 15 16 16 16 16 16 15 13 13 2 6 5 5 5 3 1 1 1 3 6 4 4 4 4 4 3 3 3 5 3 4 5 5 6 6 6 6 6 7 7 6 7 8 8 7 6 6 7 7 8 9
10 10 10 8 8 8 8 8 7 7 7 6 7 7 8 8 7 12 17 15 16 16 16 15 14 14 16 12 8 6 11 13 13 14 14 15 15 15 14 14 14 13 15 9 5 4 2 1 2 4 3 3 5 4 4 4 4 4 4 4 5 3 3 4 4 4 5 5 6 7 6 6 7 7 6 6 8 7 7 8 8 8 9 8 8
9 8 8 8 8 9 8 9 9 9 9 9 9 8 9 9 11 8 9 15 17 15 15 16 16 15 15 15 15 12 11 12 14 16 16 15 15 13 14 15 14 15 10 5 5 5 4 4 4 4 3 6 6 5 6 5 4 4 3 3 4 4 4 4 4 4 5 6 6 6 6 7 7 8 7 6 6 7 7 7 8 8 8 9 10
11 9 10 10 10 9 10 9 10 10 9 9 9 10 10 10 10 8 8 6 8 12 15 17 17 16 16 16 16 16 16 15 14 14 14 13 13 14 13 10 13 15 9 5 5 5 3 3 4 4 5 5 6 4 4 5 4 4 4 4 4 4 4 4 4 5 5 6 6 6 6 6 7 7 6 6 5 5 6 7 7 8 9 9 10
7 8 11 11 10 10 10 9 9 9 9 10 10 10 10 8 7 8 10 11 11 11 9 9 14 18 13 13 16 17 17 16 15 14 15 14 14 14 13 8 7 7 2 4 4 4 4 4 6 6 4 6 6 4 6 5 4 4 4 5 4 4 4 4 4 5 5 6 6 5 6 7 7 7 6 6 6 6 6 7 7 7 8 9 9
8 7 8 10 9 8 9 9 9 10 10 10 8 8 7 7 9 9 8 8 8 8 7 7 5 8 16 16 14 13 13 14 14 13 13 14 14 13 8 6 6 6 6 4 5 5 4 5 4 6 5 6 5 5 6 6 6 5 4 3 5 4 4 5 6 5 6 6 6 6 7 6 7 7 6 5 5 5 6 7 7 7 7 8 8
8 8 8 9 9 8 7 7 7 7 7 7 7 7 7 7 7 6 7 8 8 7 7 5 4 3 2 2 3 10 13 11 11 12 13 13 15 10 6 6 7 6 6 6 3 2 4 6 6 5 5 6 6 6 6 6 6 5 4 5 4 5 5 4 6 6 5 5 6 6 6 6 7 7 7 6 5 4 5 6 6 8 8 10 10
8 9 8 7 7 6 7 7 7 7 7 7 7 7 7 7 8 8 8 8 7 7 7 6 6 8 8 7 4 3 1 4 6 9 11 11 9 6 5 5 6 7 7 5 5 4 6 6 5 6 6 6 6 6 6 6 6 6 6 4 5 5 7 7 8 6 6 6 6 6 6 6 6 7 7 6 5 5 6 6 6 7 8 9 7
5 6 7 7 7 7 7 6 7 7 7 7 7 7 8 7 7 7 7 6 6 6 6 6 7 7 7 4 3 2 4 3 4 5 4 4 4 2 3 4 5 6 5 6 4 4 5 6 6 5 6 5 6 6 6 6 5 6 5 5 5 5 5 5 6 5 5 6 6 6 6 6 6 6 7 6 6 5 6 5 5 6 8 8 8
6 5 6 8 6 7 7 7 7 7 7 8 7 7 6 7 8 8 6 7 7 7 6 7 7 7 5 5 5 5 6 7 7 6 6 6 6 6 5 6 6 6 6 6 6 6 5 5 6 4 5 5 6 6 6 6 6 6 5 6 5 6 6 5 6 5 6 5 6 6 6 6 7 7 7 6 5 5 5 5 6 6 6 7 8
6 6 5 6 6 6 6 6 7 7 6 7 6 7 7 7 6 6 6 7 6 6 7 6 6 4 5 6 10 11 7 7 6 6 7 7 6 6 7 7 7 6 5 5 6 6 6 6 5 5 6 6 6 6 6 6 6 6 6 6 5 6 6 5 5 6 6 6 6 6 6 6 7 7 7 6 7 6 6 6 6 6 6 6 7
5 5 6 5 6 6 6 6 6 6 6 6 6 7 7 6 6 6 7 7 6 6 6 6 6 5 6 12 12 16 9 5 4 5 5 5 5 6 6 7 6 6 6 6 6 6 5 6 6 5 6 6 6 6 6 6 6 6 6 6 6 6 6 6 6 6 6 6 6 6 6 6 7 7 8 8 7 6 6 6 6 7 6 6 6
5 5 5 6 6 7 7 6 6 6 6 7 6 5 6 6 6 6 6 5 5 5 7 7 6 5 5 10 10 13 7 6 5 6 5 6 6 6 6 7 7 7 6 6 6 6 6 6 6 6 6 7 7 6 7 7 6 6 6 6 6 6 7 6 6 6 5 5 6 5 5 5 6 6 7 7 6 6 6 7 8 7 6 6 6
3 4 5 4 5 5 5 6 6 6 6 6 6 5 5 5 5 5 5 6 6 5 4 6 6 6 5 5 6 5 2 4 6 6 6 6 6 7 7 6 7 6 6 6 6 6 6 6 6 6 6 6 6 5 6 6 6 6 6 6 6 7 7 7 7 7 6 6 6 5 5 5 6 6 7 7 5 6 8 8 8 7 6 6 6
3 3 3 4 4 5 4 4 5 5 5 5 5 5 4 5 5 5 6 7 5 5 6 6 6 5 4 6 5 5 5 5 4 5 5 6 6 7 6 6 6 6 6 6 5 5 5 6 6 6 6 6 6 6 6 6 5 6 6 7 7 8 8 8 7 5 4 5 6 5 5 6 6 6 6 6 6 6 8 8 8 8 8 6 6
3 3 4 3 4 4 4 4 4 5 5 6 6 6 5 5 5 7 6 6 5 6 7 6 5 6 6 7 5 5 6 5 5 6 7 6 7 7 6 6 6 6 6 6 5 5 6 6 6 6 7 7 6 6 6 5 6 6 6 6 8 8 7 6 5 5 6 6 6 6 6 6 6 6 7 6 5 7 8 9 9 8 6 6 6
3 3 3 3 4 4 4 4 4 4 4 4 4 7 6 7 7 6 4 6 7 4 7 6 5 7 7 6 5 6 6 6 6 7 7 7 7 6 6 5 5 6 6 6 4 6 6 6 6 7 7 7 6 7 6 6 6 6 6 6 7 8 7 6 6 6 7 7 6 6 6 6 6 5 7 7 6 7 9 9 9 8 6 6 7
4 4 3 3 3 4 3 4 4 4 3 3 6 6 6 5 6 4 3 4 4 5 6 6 6 6 5 5 5 5 5 6 6 6 6 6 6 6 6 5 6 6 5 5 5 6 6 6 7 6 7 7 7 7 7 6 6 6 6 7 7 8 9 8 6 7 7 6 6 6 7 7 6 6 6 6 7 7 8 8 7 6 8 8 8
4 4 4 4 4 4 4 4 4 5 5 4 4 4 4 4 3 4 4 6 6 5 6 7 6 5 5 5 5 5 5 6 6 6 6 6 6 6 6 6 6 6 5 6 6 6 6 6 6 6 7 7 7 7 7 7 7 7 7 7 8 12 13 13 9 7 8 7 6 7 6 7 7 7 7 7 7 8 9 8 7 8 9 9 8
5 4 4 4 4 4 3 3 3 3 3 4 4 5 4 4 4 5 6 7 5 5 5 5 5 5 5 5 5 5 5 6 6 6 6 6 6 5 6 6 5 6 6 6 6 6 6 5 6 6 7 7 7 7 7 7 7 7 7 7 10 13 13 14 14 13 10 6 7 6 7 7 7 7 7 8 8 9 9 9 9 9 7 8 9
3 3 3 4 4 3 3 3 3 3 4 6 7 8 8 7 6 6 5 6 7 6 5 5 4 4 4 5 5 5 5 6 6 6 6 6 6 6 6 6 6 6 6 6 6 6 6 6 6 6 6 6 7 7 7 7 7 7 9 12 14 14 15 14 10 10 14 11 6 7 7 8 8 8 8 8 8 9 10 8 8 8 9 8 8
Wind_Direction
137 134 130 131 131 131 131 127 124 122 122 123 123 126 127 126 124 127 119 121 127 119 119 121 116 114 111 104 96 86 75 67 60 66 64 59 50 69 54 65 68 30 50 6 14 33 28 17 354 344 349 1 349 346 342 331 329 327 322 331 329 327 329 298 289 290 293 292 312 320 331 327 322 351 329 325 323 317 316 310 310 313 315 316 314
143 139 136 136 136 133 129 127 126 126 124 124 125 130 132 129 133 125 123 131 126 126 120 119 117 117 109 95 90 84 77 72 63 65 69 64 49 64 68 64 73 29 44 23 8 14 22 11 342 343 335 356 338 337 328 329 327 331 330 341 330 331 319 311 291 287 290 304 314 334 323 330 314 341 332 322 318 314 312 313 311 312 314 311 309
144 140 138 138 136 133 132 133 131 131 129 131 133 136 134 133 136 133 135 134 127 121 124 122 122 114 100 95 88 83 79 73 70 77 80 102 97 62 77 74 63 35 34 16 6 360 4 353 328 331 333 340 326 322 323 322 324 326 333 343 336 318 311 290 291 291 294 294 310 324 326 321 316 322 323 310 304 307 311 313 312 311 307 305 303
144 139 138 137 137 136 137 137 135 137 137 142 140 140 141 143 148 140 141 136 126 123 125 129 117 105 100 90 90 95 86 88 68 87 105 106 94 78 34 39 48 60 60 16 1 360 344 344 324 333 329 331 319 325 319 319 320 328 328 324 322 309 306 297 288 292 296 298 306 324 318 318 313 315 312 304 305 310 307 302 300 298 300 299 298
145 144 142 141 143 142 143 144 142 143 144 146 146 145 147 148 150 144 136 131 132 129 124 112 106 102 100 106 103 101 111 107 89 59 59 92 97 59 34 51 43 49 39 9 359 356 337 330 314 322 327 319 314 316 314 315 307 317 314 314 308 300 295 292 286 279 285 289 298 307 313 307 304 307 312 313 311 302 298 295 298 299 297 294 296
149 146 148 146 149 150 150 149 151 151 151 152 152 151 148 148 147 140 140 137 135 134 124 107 107 109 113 111 113 106 101 108 107 120 101 67 57 67 64 54 33 20 3 354 343 329 321 310 306 306 310 309 305 305 304 303 299 299 306 303 297 297 292 288 284 286 289 293 303 310 318 318 314 310 316 311 310 310 305 295 290 291 295 301 296
152 151 155 153 154 159 159 160 157 156 156 154 151 152 153 151 148 149 154 145 142 135 120 115 118 116 115 115 108 118 110 105 120 128 107 96 104 81 56 37 20 357 336 330 319 314 305 295 296 301 302 294 296 297 296 292 288 290 290 295 301 302 311 308 310 309 306 307 306 307 309 311 310 310 315 312 304 298 302 306 301 294 294 295 301
157 158 158 160 163 165 165 159 157 156 151 151 154 154 152 151 149 152 149 147 141 135 135 131 128 126 119 118 122 125 120 113 131 134 124 137 121 63 61 48 327 313 299 296 297 288 289 294 292 296 296 285 276 274 271 283 287 291 294 294 295 311 308 307 306 305 304 302 304 309 308 308 310 304 305 310 308 296 286 302 304 307 304 296 289
162 163 164 166 169 165 159 156 154 153 152 153 155 158 159 147 152 154 150 143 133 131 131 132 128 128 129 133 133 127 150 188 169 152 145 148 132 99 15 294 286 275 274 272 276 281 291 292 290 289 289 297 305 308 308 307 308 303 292 291 306 304 298 292 289 289 284 280 289 303 302 301 302 309 310 309 307 305 308 304 292 290 294 296 291
166 168 170 171 166 163 160 159 159 156 157 162 165 160 155 156 159 159 153 141 132 130 126 128 133 137 140 150 152 173 176 184 216 199 179 160 168 191 219 251 259 270 278 273 269 278 279 283 293 306 310 311 311 310 308 307 305 303 305 308 299 292 287 289 292 292 291 291 288 296 292 285 290 291 302 300 298 299 298 295 293 291 294 288 285
173 173 175 169 164 162 162 164 161 165 168 164 161 160 160 162 166 159 146 141 143 144 137 137 144 143 148 156 172 165 184 202 234 225 217 205 180 199 229 242 262 275 281 287 292 289 284 289 298 304 308 309 307 306 310 313 310 306 304 302 299 299 304 300 294 288 287 282 282 279 275 281 284 292 294 294 291 285 286 285 285 292 294 298 300
175 177 172 166 167 167 168 164 167 170 167 170 167 164 159 161 164 158 150 151 157 143 145 153 149 150 149 155 171 195 211 241 239 237 231 226 216 207 225 243 261 275 281 284 289 294 297 307 300 301 299 300 301 312 311 307 307 306 304 301 299 296 290 287 289 289 281 281 283 276 266 268 280 291 292 291 290 286 277 282 288 288 287 288 290
176 175 175 171 171 171 170 172 174 173 175 169 165 159 161 163 162 163 172 167 151 157 162 154 161 157 155 170 185 202 190 248 250 249 243 232 232 230 227 245 260 270 276 283 287 290 306 309 301 294 292 303 305 296 287 284 292 295 297 294 285 280 284 292 294 289 284 280 281 282 273 281 284 283 285 287 286 288 291 287 283 279 284 284 286
178 178 174 176 175 174 175 176 178 176 169 165 163 165 169 177 171 164 154 160 168 161 160 163 162 165 167 170 187 202 219 252 254 253 245 238 234 235 225 241 258 268 273 276 281 298 300 288 290 288 281 284 286 287 282 275 270 267 263 261 263 267 272 272 275 279 280 277 275 276 278 266 273 276 277 281 288 290 291 286 288 289 291 294 303
180 179 179 178 174 176 177 179 178 170 169 168 169 174 177 167 162 166 173 177 174 178 173 170 174 167 168 165 172 205 228 244 250 252 244 237 236 235 230 241 252 265 270 275 275 269 267 268 269 273 275 279 271 281 281 282 279 271 269 268 267 256 248 249 252 251 257 264 266 270 277 277 273 278 282 290 286 289 300 307 310 307 301 299 294
184 181 183 179 179 180 178 178 175 172 171 172 175 176 176 176 172 170 168 169 166 145 152 148 166 173 174 171 176 221 243 246 250 252 244 237 237 226 199 241 244 255 262 256 268 269 262 261 264 270 268 268 282 296 297 295 283 277 278 279 273 271 272 286 299 308 310 309 307 301 299 301 308 312 316 317 319 318 313 307 304 301 305 307 300
189 190 186 180 182 181 179 176 176 174 172 174 182 184 172 177 175 165 168 175 168 180 178 171 168 170 176 176 181 223 240 253 253 251 248 238 229 140 148 207 247 243 252 256 260 268 270 276 277 280 285 285 289 296 298 300 292 288 291 289 293 306 315 325 321 313 307 305 308 314 315 315 315 316 317 318 316 317 319 318 317 326 316 309 307
194 189 185 182 181 179 180 178 177 176 176 186 189 184 181 177 175 174 175 172 184 187 168 159 170 177 180 183 184 201 234 248 250 253 253 247 230 183 213 215 232 239 240 256 257 264 268 278 282 279 282 269 285 297 303 304 297 304 303 313 321 323 318 317 304 301 322 335 330 327 325 323 323 322 320 317 318 322 322 313 312 308 306 310 310
191 188 185 179 179 178 180 181 182 183 188 193 187 182 185 185 174 169 179 177 176 154 159 161 174 185 186 178 188 198 235 250 261 263 255 252 242 169 164 184 228 240 235 238 257 240 253 267 274 279 276 283 297 302 307 316 317 311 321 332 330 320 309 306 333 347 340 334 335 334 329 332 331 328 324 325 326 326 318 309 310 312 313 317 318
189 184 180 178 179 181 184 185 187 187 193 189 184 186 169 157 169 175 173 168 160 162 161 168 178 193 182 171 193 200 222 250 252 262 261 254 239 197 177 207 223 225 227 230 220 249 246 245 261 271 285 294 300 308 313 314 316 332 3 345 320 307 306 3 353 346 345 341 327 332 329 329 329 330 329 331 330 333 336 336 335 333 331 327 322
184 185 175 175 182 185 186 187 187 190 188 183 172 162 169 174 164 169 167 159 151 156 167 172 178 191 188 192 187 208 207 245 263 261 260 251 242 229 178 212 215 215 202 232 238 237 240 244 237 259 283 293 304 307 315 323 319 348 359 311 288 296 4 11 352 351 334 329 323 323 323 321 324 329 334 332 332 333 331 331 329 328 325 320 315
173 167 174 180 184 183 184 185 182 175 160 152 161 173 172 164 171 165 159 161 163 167 164 170 182 196 195 203 206 213 219 229 244 263 255 250 242 234 212 215 221 214 227 227 231 222 236 238 240 270 282 294 301 314 321 320 327 357 314 310 315 333 24 357 341 335 324 317 317 317 319 322 326 330 330 331 330 325 323 322 324 322 317 312 308
166 171 175 177 181 181 179 174 171 164 168 169 167 170 163 162 162 159 160 162 166 167 173 172 181 200 219 230 224 221 215 228 240 239 247 245 240 233 229 224 228 223 208 215 217 227 242 254 252 258 278 294 315 321 321 326 338 318 316 321 328 350 2 353 334 324 314 310 311 314 320 321 326 326 322 319 315 312 311 308 306 307 299 294 294
163 170 177 180 175 179 177 175 169 167 167 163 165 162 167 164 160 170 169 167 168 171 179 174 178 198 213 231 231 224 213 215 240 240 237 240 236 231 230 234 235 228 231 235 242 245 218 224 242 261 269 305 321 323 323 328 321 318 324 327 346 358 349 336 326 313 306 308 310 317 321 316 312 312 313 311 311 309 307 305 303 301 296 296 295
166 174 179 177 177 170 162 168 170 169 168 164 164 167 162 160 165 175 168 177 176 180 184 181 191 198 200 213 223 220 214 211 224 238 235 232 233 232 234 238 241 243 244 236 257 258 265 263 263 272 302 319 319 322 330 326 321 321 327 339 357 350 337 323 315 313 318 316 315 311 307 308 306 300 303 306 303 301 298 298 296 290 289 290 289
172 181 173 169 167 156 159 161 162 166 167 177 178 175 171 174 176 174 180 188 185 185 185 186 195 193 203 209 209 212 207 210 221 227 238 239 238 235 234 234 237 240 245 251 251 253 257 275 304 351 9 339 321 319 251 304 320 328 332 346 354 328 316 321 310 319 311 313 313 314 305 304 307 304 301 300 301 301 303 304 311 312 313 312 313
171 161 169 161 156 162 165 168 166 167 173 171 172 171 174 177 175 179 186 185 188 191 188 186 191 196 203 206 202 198 205 211 219 217 224 230 241 241 242 245 242 239 252 262 269 275 278 256 233 301 352 320 322 324 330 328 333 323 329 325 316 308 298 284 299 305 311 309 306 301 300 299 300 304 304 304 298 293 297 308 314 316 320 318 314
172 177 171 166 168 173 174 169 168 174 183 179 177 180 187 185 186 191 188 190 184 191 184 192 195 195 199 192 188 193 207 210 216 212 216 214 220 220 225 229 227 228 244 245 233 222 183 146 48 51 10 354 329 358 337 314 285 299 303 314 301 297 311 318 322 315 292 288 288 292 296 305 308 305 302 297 297 308 319 323 323 321 322 319 320
161 157 159 156 174 178 177 175 183 180 184 194 206 195 185 189 200 212 220 197 191 180 185 200 202 197 186 178 177 197 196 212 220 207 206 206 203 204 219 218 222 217 232 239 205 140 125 86 41 12 4 305 322 316 312 315 300 275 301 303 307 322 317 323 324 315 307 314 313 311 308 310 307 303 299 314 333 331 327 325 326 319 317 316 312
158 171 170 175 169 173 181 187 187 185 185 193 195 224 240 217 217 205 206 202 212 220 200 196 194 179 182 203 185 180 194 209 211 212 218 217 217 215 217 220 220 218 221 252 194 154 152 168 206 231 286 310 295 287 291 292 297 313 302 313 329 316 303 311 308 302 304 306 302 309 304 306 305 305 316 329 325 329 332 335 322 322 321 325 322
171 169 170 189 188 186 183 182 190 190 192 188 192 199 216 229 221 221 215 209 215 220 214 207 194 189 181 189 216 211 197 201 206 213 218 220 221 227 232 236 240 249 257 181 125 169 171 203 235 271 273 239 256 263 267 278 283 291 298 301 296 300 306 305 298 299 306 308 305 298 298 295 299 304 314 324 325 324 327 323 315 319 322 323 321
181 190 192 189 180 184 186 182 176 185 191 190 191 193 196 211 241 226 219 214 217 218 219 215 208 200 200 191 175 211 212 210 212 216 219 224 227 230 237 243 248 242 256 203 149 164 165 182 268 255 249 254 252 254 253 256 268 267 282 310 301 292 297 301 298 314 305 305 302 300 298 300 297 298 301 311 321 320 321 324 329 330 327 324 318
188 188 186 181 182 183 180 185 188 187 189 188 196 192 197 199 206 217 222 219 218 220 220 218 214 210 206 203 194 190 198 211 223 225 225 227 231 236 240 243 242 248 229 145 147 176 169 194 210 240 228 246 251 246 254 246 251 259 251 258 281 289 286 285 308 301 296 291 294 293 295 294 294 294 297 305 314 315 319 319 323 323 324 324 324
195 184 183 183 179 188 191 192 190 196 194 193 194 194 203 202 205 193 182 190 214 223 224 221 218 214 212 208 206 205 207 214 221 224 227 233 235 237 238 242 247 242 185 174 170 198 176 201 221 227 238 239 247 245 256 254 250 248 259 255 258 274 280 294 303 295 295 294 291 283 289 291 296 301 301 304 299 298 309 312 320 327 331 331 324
197 195 183 178 188 193 194 193 194 191 189 193 195 197 202 200 192 188 189 194 198 197 194 204 213 211 211 214 215 217 221 222 221 220 222 226 231 234 239 240 233 231 97 98 163 178 195 215 229 236 225 238 243 232 245 249 249 249 248 262 263 272 284 289 286 286 288 287 282 281 290 297 300 298 294 304 310 311 313 317 317 321 322 323 324
198 196 192 191 192 194 193 195 192 192 195 198 194 196 186 182 193 200 200 205 199 193 196 197 186 212 214 215 217 223 222 222 224 226 230 232 234 232 231 219 212 212 214 201 177 204 201 221 214 233 225 235 241 241 239 246 244 244 241 243 267 266 272 280 282 286 281 275 284 297 301 296 292 293 291 282 277 291 305 310 312 313 318 318 319
201 204 198 198 197 193 191 188 193 192 189 178 177 183 187 194 196 191 196 198 197 195 189 168 158 261 351 8 232 217 217 221 228 231 235 235 233 232 227 208 207 207 206 221 206 203 222 234 214 221 225 228 234 235 238 245 246 244 253 244 246 263 263 259 265 262 280 293 290 288 286 286 290 290 288 287 290 297 300 300 307 311 317 320 323
206 206 206 191 186 183 179 188 185 171 178 178 183 181 188 190 193 191 191 194 187 182 177 184 192 189 194 207 153 139 269 296 288 250 237 234 233 225 215 203 199 196 212 202 206 208 229 238 215 213 230 220 236 237 235 247 246 241 243 250 248 244 268 273 283 287 285 278 279 279 284 284 285 288 287 279 287 299 301 298 302 313 316 317 320
224 221 204 179 183 184 184 173 175 178 184 176 182 181 190 186 187 190 191 186 183 183 181 179 188 192 202 156 149 164 163 225 224 236 244 252 272 251 208 206 201 207 202 206 203 213 220 233 230 217 226 225 232 236 232 246 242 243 241 245 258 258 267 271 271 263 263 263 271 273 275 278 282 284 283 281 286 287 287 289 300 309 315 315 315
206 213 203 185 189 184 175 180 173 180 184 177 186 182 180 187 192 189 181 178 189 187 187 188 196 205 177 140 169 152 175 204 211 217 226 242 241 240 215 211 211 208 204 207 206 210 217 232 225 224 232 231 231 236 234 237 244 245 245 241 251 263 258 255 260 262 262 262 265 272 275 282 286 285 282 279 280 282 282 297 302 301 302 306 307
198 192 191 193 180 171 164 173 183 188 178 180 174 177 190 184 182 178 182 189 187 187 192 196 201 186 167 190 188 179 179 196 206 213 218 225 229 221 222 219 206 211 209 204 210 206 212 225 230 226 235 235 232 233 237 234 241 246 244 249 247 255 260 256 254 259 262 264 265 272 278 281 283 287 290 291 295 299 306 297 294 294 294 298 302
180 179 182 186 170 167 170 184 180 166 163 167 173 180 179 177 176 178 186 188 189 188 188 191 167 154 193 195 204 202 194 198 196 210 223 222 219 221 215 218 215 205 200 206 203 208 213 218 229 224 230 237 230 235 229 236 235 240 243 243 246 249 256 255 252 252 258 264 267 268 270 279 288 295 296 299 297 292 291 296 292 291 292 294 302
178 179 179 171 172 176 177 174 156 161 167 175 180 172 172 172 180 181 184 184 184 177 160 165 163 148 197 208 209 215 193 184 201 206 207 215 219 226 223 220 215 210 208 211 206 200 207 217 228 227 225 232 227 222 222 229 222 230 236 239 243 244 251 258 259 257 258 261 265 267 270 281 289 288 286 286 291 299 297 296 292 283 284 293 295
163 163 166 170 162 152 156 156 168 173 173 168 160 167 168 168 170 172 175 168 152 168 173 168 147 150 160 217 219 236 208 184 192 205 205 211 215 222 227 226 220 217 219 218 220 205 205 221 233 239 234 234 230 224 225 228 217 223 233 239 244 246 246 251 253 254 250 255 260 267 273 278 280 281 282 287 298 301 295 286 282 281 285 289 295
148 152 161 155 160 158 160 158 160 155 148 149 154 156 158 160 173 174 157 145 173 170 162 169 153 167 184 198 212 218 227 223 216 217 227 224 227 229 228 225 218 221 225 231 223 212 216 223 232 237 245 240 228 229 232 230 222 225 225 229 238 247 246 246 248 246 235 243 258 265 270 268 268 268 279 286 288 283 285 287 287 292 289 284 293
145 152 155 157 152 154 145 150 146 153 157 164 161 159 163 169 163 151 153 168 177 166 157 161 174 180 189 188 201 211 221 221 228 228 234 237 239 242 237 228 225 224 228 233 225 215 222 222 225 231 237 242 239 234 235 230 228 227 227 226 235 244 246 248 249 247 245 238 247 249 260 261 262 262 273 279 287 286 280 281 278 270 270 283 285
134 141 152 144 154 144 146 143 148 152 141 143 134 138 154 148 139 142 169 175 175 175 175 179 181 191 182 198 202 214 213 216 222 224 227 232 236 241 246 241 237 238 237 234 228 227 226 230 228 229 236 241 240 241 239 232 227 228 227 230 234 242 244 242 238 241 245 240 235 242 248 252 263 263 274 278 277 280 280 278 275 280 281 288 287
134 130 130 129 123 138 140 150 146 149 143 144 144 148 133 137 146 162 152 166 175 170 176 188 192 201 202 215 214 216 216 222 228 231 234 234 237 236 237 236 236 239 240 241 236 231 226 231 231 231 235 238 239 240 241 236 235 226 229 229 230 233 235 231 234 238 238 237 232 235 240 247 253 258 263 264 268 269 276 274 278 287 290 287 284
121 128 127 135 143 144 154 159 161 172 157 139 147 164 156 160 164 168 174 166 179 197 189 198 207 209 213 222 219 224 224 225 230 235 236 237 237 236 233 234 239 241 239 247 244 237 233 233 232 233 233 237 237 239 243 240 239 235 233 231 233 235 238 237 235 237 230 229 229 230 236 240 246 250 254 255 258 259 259 268 283 288 287 280 276
123 130 133 138 135 136 136 146 154 144 145 157 160 151 155 171 172 165 176 171 197 207 210 212 215 216 214 225 224 227 223 229 235 236 238 238 237 235 235 235 240 243 242 249 250 246 238 236 233 237 237 236 238 240 240 241 242 241 241 237 241 244 243 241 240 240 237 237 229 227 226 238 241 245 243 247 249 256 262 264 264 265 268 275 274
116 125 132 136 123 115 132 136 154 154 162 156 158 152 164 178 191 189 190 195 200 212 210 214 217 221 222 226 223 225 225 231 231 233 234 235 235 228 228 230 236 240 244 243 250 247 242 240 238 237 238 239 239 241 242 242 245 243 245 247 248 247 248 247 245 245 244 241 227 222 226 231 234 238 240 240 244 243 252 265 276 277 272 266 264